sat.trackr.live / text

‹ back to catalog

STARLINK-32394

NORAD 61853 · 2024-202J

PAYLOAD ACTIVE UNKNOWN

§ Identity

Operator
Country
US
Launch date
2024-11-07
Launch site
AFETR
Launch vehicle
Mass (kg)
RCS (m²)

Purposes: comms

External: N2YO · Heavens-Above · Gunter

§ Orbital elements

Epoch: 2026-05-24T18:03:37.237248Z

Period
94.27 min
Inclination
42.9992°
Eccentricity
0.0001456
Mean motion
15.27581999 rev/d
Perigee alt
482.0 km
Apogee alt
484.0 km
Semi-major
6,861.2 km
B*
5.6704e-5
RAAN
168.1515°
Arg perigee
264.4800°
Mean anomaly
95.5886°
Rev number
8,696

§ Raw data

STARLINK-323941 61853U 24202J   26144.75251432  .00001299  00000+0  56704-4 0  99952 61853  42.9992 168.1515 0001456 264.4800  95.5886 15.27581999 86963

JSON: /api/v1/satellites/61853 · /tle

For live sub-satellite position, see the globe view (requires WebGL).

§ Visibility from observer

Set your observer location to see the next 7 days of passes ≥ 10°. The values pass through the URL so the page stays shareable.

No JS? Fill the form by hand. The geolocation button needs JavaScript.